Hourly Data Report for October 02, 2017

All times are specified in Local Standard Time (LST). Add 1 hour to adjust for Daylight Saving Time where and when it is observed.

PANGNIRTUNG
NUNAVUT

66°08'36.300" N
65°42'40.500" W
22.60 m
2403049
71826
WXP

Download Data

Hourly Data (October 2017)
Hourly Data Report for October 2, 2017
Temp Definition
°C
Dew Point Temp Definition
°C
Rel Hum Definition
%
Wind Dir Definition
10's deg

Wind Spd Definition
km/h
Visibility Definition
km
Stn Press Definition
kPa
Hmdx Definition


Wind Chill Definition


Weather Definition


TIME
00:00 -1.1 -3.2 85 25 23   101.00   -7 LegendNANA
01:00 -1.4 -3.5 85 27 28   101.03   -8 LegendNANA
02:00 -1.7 -4.1 84 27 29   101.05   -9 LegendNANA
03:00 -2.0 -4.7 82 27 36   101.08   -10 LegendNANA
04:00 -2.0 -5.8 75 28 22   101.14   -8 LegendNANA
05:00 -2.0 -5.6 76 29 16   101.18   -7 LegendNANA
06:00 -2.2 -5.7 77 28 19   101.21   -8 LegendNANA
07:00 -2.2 -5.8 76 25 17   101.30   -8 LegendNANA
08:00 -2.2 -5.9 76 26 16   101.33   -7 LegendNANA
09:00 -1.9 -6.1 73 26 16   101.33   -7 LegendNANA
10:00 -1.2 -6.3 68 34 14   101.30   -6 LegendNANA
11:00 -1.1 -5.6 71 35 9   101.27   -4 LegendNANA
12:00 -1.3 -4.7 78 14 3   101.24   -2 LegendNANA
13:00 -2.1 -2.5 97 26 18   101.20   -8 LegendNANA
14:00 -2.2 -2.6 97 26 16   101.19   -7 LegendNANA
15:00 -2.1 -2.5 97 26 14   101.15   -7 LegendNANA
16:00 -2.0 -2.5 97 25 14   101.14   -7 LegendNANA
17:00 -2.0 -2.5 97 26 7   101.10   -5 LegendNANA
18:00 -1.7 -2.5 94   0   101.04     LegendNANA
19:00 -1.2 -2.7 90 6 4   101.01   -3 LegendNANA
20:00 -1.7 -2.3 95 11 2   100.95   -2 LegendNANA
21:00 -1.7 -2.0 98   0   100.88     LegendNANA
22:00 -1.7 -1.9 99   0   100.80     LegendNANA
23:00 -1.5 -1.7 99   0   100.74     LegendNANA

Notes on Data Quality.

Legend

  • E = Estimated
  • M = Missing
  • NA = Not Available
  • ‡ = Partner data that is not subject to review by the National Climate Archives
Date modified: